Location: Hopville
(44.8032°N, 123.1329°W)
Time: 16:56:22
(UTC+00:00)

Cosmos 1953 - Pass Details

Date: 24 January 2021
Orbit: 539 x 556 km, 82.5° (Epoch: 28 February)

Event Time Altitude Azimuth Distance (km) Brightness Sun altitude
Exits shadow 13:43:14 36° 344° (NNW) 867 3.1 -20.5°
Drops below altitude 10° 13:45:48 10° 1° (N) 1,813 4.9 -20.1°
Sets 13:48:00 0° 6° (N) 2,709 5.8 -19.7°
